Theta_e
311 311 311 311 312 312 312 312 312 312 312 312 312 312 313 313 313 313 313 313 314 314 314 314 315 315 315 315 315 315 314 309 308 308 308 311 319 328 330 331 329 328 326 314 312 309 306 308 309 312 311 308 305 303 307 307 306 303 295 292 290 292 293 297 296 296 299 298 300 302 303 301 299 303 305 306 305 319 326 327 332 333 333 339 340 340 339 339
312 311 311 311 311 311 312 311 311 311 312 312 312 312 312 313 312 313 313 313 313 314 314 314 314 315 315 315 315 315 312 308 306 308 308 318 326 327 330 330 329 327 323 310 308 307 305 305 307 311 309 303 307 302 307 302 307 298 295 293 290 293 297 300 300 300 299 298 302 304 303 302 301 302 305 302 302 320 322 324 329 331 334 339 340 339 338 338
312 312 311 311 311 311 311 311 311 311 311 312 312 312 312 312 312 312 313 313 313 314 314 314 314 314 314 315 314 315 310 306 308 307 313 324 324 326 329 329 329 328 312 308 309 308 306 307 308 309 307 302 301 300 304 301 304 300 296 290 293 298 300 301 303 301 302 301 300 301 302 303 302 302 305 301 300 315 320 319 322 327 330 334 338 339 339 339
311 311 311 311 311 311 311 311 311 311 311 311 311 312 312 312 312 313 313 313 313 313 313 314 315 314 314 315 315 312 308 306 302 308 319 331 326 325 328 328 329 325 312 310 311 310 311 310 310 310 306 301 300 302 299 301 299 298 296 292 295 298 297 301 303 303 303 302 301 300 301 300 303 304 304 302 299 313 320 323 321 322 330 333 337 339 340 340
310 310 310 310 311 311 311 311 311 311 311 311 311 311 312 312 312 313 313 312 313 313 314 314 314 314 314 315 314 311 305 298 301 315 322 331 329 327 327 329 332 318 312 309 309 309 310 310 309 308 305 297 300 298 298 301 304 301 297 299 300 300 299 302 304 303 302 302 302 301 299 299 303 304 304 302 298 295 311 323 325 327 331 333 335 338 340 339
310 310 310 310 310 311 311 311 311 311 311 311 311 311 311 312 312 312 312 313 313 313 314 313 314 314 315 314 311 309 302 288 309 314 331 329 328 327 329 333 332 317 312 308 306 308 308 309 308 303 300 299 297 294 297 300 304 294 297 298 299 300 299 302 303 303 301 301 300 299 302 302 301 301 302 302 300 304 324 328 329 330 332 336 338 338 338 338
310 310 310 310 310 310 311 311 311 311 311 311 311 311 312 312 311 312 312 312 313 313 313 313 313 314 314 313 310 307 302 303 308 316 329 333 332 332 331 332 331 318 311 305 305 304 307 308 307 303 301 299 299 299 302 301 302 298 294 298 300 302 301 303 302 302 300 301 300 302 302 301 300 298 303 301 303 314 327 329 329 332 335 339 337 337 337 337
310 310 311 310 310 310 310 311 311 310 310 311 311 311 311 311 311 312 312 312 312 312 313 313 313 313 313 308 305 301 302 302 310 316 335 334 330 331 327 319 314 312 310 305 305 305 308 306 304 306 300 297 299 300 302 301 300 297 297 299 301 302 301 301 301 301 303 302 301 301 299 299 300 300 302 300 302 322 326 330 332 333 335 336 337 337 337 337
310 309 310 310 311 310 310 310 310 310 310 310 311 310 311 311 311 311 311 312 312 312 312 313 313 313 313 308 303 300 299 309 315 321 332 326 320 323 318 315 312 308 308 308 308 309 310 306 306 306 299 300 303 300 300 298 293 298 298 300 300 301 301 301 301 302 301 303 303 300 298 299 300 302 299 301 302 309 328 330 331 333 333 335 335 336 335 336
309 309 310 311 311 310 310 310 310 310 310 310 310 310 310 310 310 310 311 311 311 312 312 312 313 312 308 304 303 295 306 323 322 325 326 325 322 320 318 315 311 307 307 308 310 310 309 308 306 308 306 303 304 300 301 299 294 302 300 300 300 300 300 301 300 302 302 301 301 298 297 299 301 301 293 301 304 326 328 329 331 330 330 333 334 332 332 335
308 309 309 309 310 310 310 310 310 310 310 310 310 310 310 310 310 310 310 311 311 312 312 312 313 312 305 306 298 296 313 320 323 324 325 326 322 318 315 312 310 306 308 310 311 314 314 313 310 308 305 300 302 299 299 299 302 301 303 301 300 300 300 300 301 300 300 300 301 301 299 299 300 300 294 299 303 326 325 326 326 327 327 329 330 330 330 333
309 309 309 309 309 309 309 309 309 310 310 310 310 310 310 310 310 310 310 311 311 312 312 313 313 309 307 304 297 299 313 312 324 324 324 323 320 318 317 312 309 307 308 309 311 313 313 312 308 304 296 302 295 300 299 302 301 300 300 295 297 299 299 301 300 301 302 299 302 302 297 296 297 296 300 301 302 323 323 321 323 324 325 327 328 328 328 331
309 309 309 309 309 309 309 309 309 309 309 309 309 309 309 309 310 310 310 310 311 311 312 313 313 310 305 297 301 309 310 311 311 317 316 317 315 314 315 310 309 309 310 309 309 311 309 306 306 301 303 300 298 293 299 303 301 302 300 296 296 295 295 299 301 301 299 301 302 301 286 288 294 298 300 302 303 318 319 318 321 323 324 326 327 327 329 330
309 308 308 309 309 309 309 309 309 309 309 309 309 309 309 309 310 310 311 310 312 312 313 314 312 308 304 299 306 311 313 311 310 313 312 313 310 309 312 310 309 310 312 312 311 307 308 306 306 304 305 300 297 304 300 299 302 293 297 298 291 290 291 299 300 300 298 301 300 300 289 289 295 297 300 302 302 316 315 320 320 322 324 325 325 325 327 330
309 308 308 308 308 309 309 309 308 308 308 308 309 309 309 309 310 310 311 311 311 312 313 314 310 305 298 300 310 313 328 321 310 311 313 310 308 308 309 310 308 310 312 313 310 312 310 308 306 302 297 304 302 299 294 294 297 295 291 288 291 289 293 298 301 301 297 300 301 299 291 291 294 297 301 302 302 314 316 319 320 321 323 324 322 322 325 327
308 308 308 307 308 308 308 308 308 308 308 308 308 308 309 309 310 310 311 311 311 312 312 307 306 305 300 296 303 319 315 303 303 310 312 312 310 308 311 309 308 309 310 310 313 312 309 308 301 299 299 300 297 292 291 291 292 294 290 293 290 291 292 294 299 301 301 300 300 297 288 292 294 298 300 303 302 317 316 317 318 320 323 322 320 321 321 324
308 307 307 307 307 308 308 308 307 308 308 308 308 308 309 309 310 310 311 311 310 312 309 304 307 305 294 306 313 303 303 304 308 309 310 312 312 311 310 308 305 306 310 312 311 310 308 304 304 301 301 293 294 294 288 286 288 289 292 289 292 291 292 290 297 300 300 298 294 297 293 293 296 299 300 303 309 317 316 316 317 319 320 319 319 320 320 322
308 307 307 307 307 307 307 307 307 308 308 308 307 307 306 309 311 310 309 310 309 310 309 310 308 301 297 306 300 303 306 304 304 307 309 311 311 311 308 306 306 306 307 306 308 303 304 298 299 291 295 294 293 291 286 284 288 288 289 288 290 293 293 293 292 295 299 298 295 294 294 295 296 297 299 303 305 311 316 316 316 317 318 317 318 317 318 321
307 307 307 307 307 307 307 307 307 307 307 308 307 309 311 313 311 308 305 308 304 300 295 298 298 290 289 302 308 308 307 307 306 307 306 308 311 311 310 310 308 304 301 300 299 301 300 298 301 291 287 289 291 292 289 292 295 294 294 291 292 289 291 290 296 299 299 295 294 293 291 293 295 295 297 302 304 312 315 316 316 316 317 316 317 317 317 319
307 306 306 307 306 307 306 307 307 307 307 305 303 303 306 304 303 303 305 305 302 303 301 304 303 304 302 302 303 311 312 308 302 304 307 310 309 307 306 306 304 304 300 294 298 299 300 290 287 287 288 292 296 296 295 297 296 296 295 294 293 293 294 298 297 299 299 295 293 294 294 294 294 295 297 301 302 304 314 315 315 316 315 315 315 315 317 319
306 306 306 306 306 306 306 307 307 307 307 304 302 299 298 300 293 295 303 302 304 306 304 304 305 304 301 304 307 307 302 302 304 302 305 311 308 303 301 302 299 295 297 300 298 303 299 289 290 293 294 295 296 298 297 296 297 296 294 293 292 294 292 298 298 299 299 296 292 295 295 294 294 296 298 299 302 302 313 314 314 315 315 315 314 315 316 318
306 306 306 306 306 306 306 306 306 307 307 304 301 297 300 302 303 303 300 293 301 306 305 305 307 304 308 306 309 310 308 302 301 301 305 307 303 298 299 300 297 294 298 299 297 294 290 289 293 296 298 298 297 298 298 296 296 296 292 292 291 292 297 298 299 298 299 297 292 294 293 293 295 296 297 298 299 300 313 316 315 315 315 314 315 315 316 322
306 305 306 306 306 306 306 306 307 307 302 300 297 299 300 306 308 306 302 297 295 302 303 305 303 305 305 308 307 311 303 300 298 300 303 305 300 299 299 296 295 297 298 298 292 291 287 291 296 299 298 297 297 297 298 298 297 293 292 290 288 295 293 286 295 297 298 295 295 294 293 292 297 298 297 299 299 300 311 318 316 317 316 315 315 316 317 321
305 305 306 306 306 306 306 306 306 303 300 299 299 299 306 307 306 304 301 293 293 299 301 302 305 306 305 302 305 305 301 301 302 299 306 303 298 300 297 298 295 296 294 296 296 293 291 296 299 298 297 296 295 297 296 294 291 296 294 294 293 294 294 295 291 298 301 300 299 294 291 290 294 293 295 297 300 300 300 314 316 317 317 317 318 317 318 320
305 305 305 305 306 306 306 306 299 299 303 302 299 302 304 304 305 307 299 295 294 294 303 302 303 304 307 311 307 301 302 302 302 305 305 303 300 298 296 301 297 293 296 298 297 295 295 300 300 297 296 296 294 293 294 295 289 294 299 299 296 297 295 295 296 294 289 288 298 293 284 284 289 293 295 296 297 297 299 298 303 314 315 316 316 316 318 321
305 305 305 305 305 305 306 299 303 302 300 301 304 309 309 307 306 307 300 292 286 295 299 292 303 297 309 301 303 302 303 296 303 304 306 305 307 301 299 295 298 292 296 296 296 295 295 300 300 297 296 295 295 293 295 296 290 291 294 299 298 297 296 294 293 292 284 284 294 297 284 281 288 292 294 295 295 296 297 298 299 303 313 315 315 316 317 321
305 305 305 305 305 305 298 299 302 301 298 302 305 308 305 308 311 309 296 286 281 295 290 299 299 298 305 302 301 302 286 291 304 304 306 308 303 306 296 293 297 299 300 301 294 290 298 297 297 298 296 294 292 291 294 296 292 290 300 299 298 296 294 294 294 292 287 296 298 298 290 283 281 287 294 296 294 295 295 297 299 300 303 313 315 317 319 321
305 305 305 305 305 304 299 300 299 298 299 304 305 306 306 310 310 308 293 279 278 298 291 294 299 307 302 302 302 296 297 301 294 299 305 307 306 301 298 295 295 295 298 296 285 296 298 296 296 295 296 292 289 293 300 298 294 293 299 300 297 296 296 295 293 289 290 291 283 291 294 284 282 287 294 296 293 294 296 297 299 298 301 310 315 317 321 321
304 305 305 305 305 305 304 300 299 298 304 305 306 306 309 309 306 295 287 279 297 295 307 295 307 301 300 301 298 299 298 301 293 298 302 307 307 303 294 296 297 296 299 297 289 295 299 299 299 298 295 290 296 297 298 298 294 298 299 299 298 297 297 296 291 290 290 288 280 288 293 283 281 288 290 293 293 296 300 304 306 309 310 311 313 317 321 322
304 304 304 304 303 302 303 303 298 303 306 307 306 306 309 305 297 287 280 273 300 288 298 298 297 294 299 295 295 298 296 298 299 299 300 300 303 304 303 305 298 296 294 298 296 296 298 306 305 300 295 298 298 299 299 298 298 299 298 296 295 294 292 293 291 290 286 280 281 290 292 288 279 285 293 293 296 299 301 303 306 308 311 314 316 319 321 322
304 304 304 305 298 300 301 297 302 306 307 308 310 308 305 299 290 281 275 287 298 295 299 295 295 300 296 294 290 297 296 297 297 297 293 300 299 301 301 296 300 294 292 294 293 296 298 299 298 299 304 301 301 298 301 301 299 297 293 291 291 288 291 289 287 289 281 276 285 289 291 292 279 285 297 301 306 306 303 302 305 307 309 311 313 316 318 320
304 304 304 302 302 303 296 298 305 305 306 306 308 304 297 284 289 280 280 302 284 291 293 291 297 297 296 297 294 294 293 295 297 294 290 292 292 292 291 287 293 285 284 287 285 293 292 292 298 300 304 300 298 296 294 298 297 294 292 290 285 280 281 279 282 278 278 276 285 290 291 287 283 291 298 304 305 307 309 307 304 306 310 312 313 316 319 320
304 305 304 303 304 300 301 302 304 304 305 306 305 300 291 283 276 284 286 293 287 295 292 299 295 296 296 295 293 295 296 290 296 295 294 293 292 294 296 294 295 291 283 289 288 287 288 295 295 297 300 301 298 289 288 288 291 291 289 285 282 278 278 273 276 279 279 286 290 290 293 285 294 297 302 304 306 309 310 310 309 309 309 310 315 318 319 319
304 304 301 303 302 303 303 305 304 305 303 305 301 296 290 281 282 294 288 291 292 297 297 296 297 296 296 291 294 296 290 295 296 294 294 290 290 288 292 295 296 293 292 290 285 286 280 282 290 295 291 299 297 295 293 291 290 290 293 290 284 283 281 274 278 274 276 279 288 294 287 281 287 292 304 307 309 310 312 313 313 313 314 315 316 317 318 316
304 303 302 302 302 303 304 305 305 306 305 302 296 291 281 282 288 288 288 290 293 296 294 299 295 294 292 294 296 297 295 290 297 295 291 288 286 288 289 291 295 295 294 284 291 288 289 287 293 298 297 300 297 300 300 297 292 293 294 294 287 283 287 280 280 281 284 279 280 285 285 293 292 302 306 309 311 311 313 314 314 313 314 313 313 314 315 315
302 301 303 301 302 304 304 305 305 305 302 298 291 284 283 288 286 293 290 295 294 292 295 297 294 289 289 289 294 294 299 293 295 294 291 291 291 289 293 293 293 295 290 284 289 284 289 286 297 297 299 298 298 300 299 299 283 289 293 286 289 293 291 283 283 288 281 280 279 284 290 296 299 301 304 307 308 309 310 312 312 310 311 311 311 313 314 315
298 301 300 304 305 308 307 306 306 304 302 297 289 283 290 293 296 295 297 293 293 294 291 287 287 287 288 287 289 292 294 296 295 293 286 293 289 293 292 293 297 295 295 293 290 293 285 285 296 296 294 299 301 301 300 299 298 292 287 290 296 298 296 287 279 280 280 276 278 286 283 289 290 284 301 303 305 305 306 308 310 310 310 310 311 313 314 315
298 299 302 304 308 312 310 308 306 303 300 295 286 291 296 291 298 297 297 295 294 293 288 286 289 291 287 287 287 291 295 291 292 292 290 292 287 296 293 293 296 296 296 297 288 293 292 283 291 297 298 299 301 299 296 298 299 293 291 298 290 282 282 287 282 276 276 276 278 283 287 287 289 289 297 299 302 302 304 307 308 309 310 309 310 312 314 315
299 298 298 308 313 313 310 308 305 301 295 290 286 286 294 295 299 298 296 295 296 292 286 289 287 291 289 287 291 294 293 288 293 290 287 290 285 299 296 296 294 297 297 297 292 292 297 284 287 297 296 299 299 295 284 289 297 298 297 293 296 290 286 282 280 283 281 277 277 278 286 281 295 293 299 300 303 302 303 307 308 308 309 309 309 310 311 312
296 298 299 312 314 313 310 307 302 298 292 284 288 290 297 294 298 299 295 294 292 289 290 288 291 286 290 290 293 289 294 294 292 292 291 295 292 304 296 301 298 295 297 297 294 295 286 291 280 289 297 297 289 293 288 289 287 289 289 287 292 293 294 289 291 285 281 277 278 278 279 283 292 300 300 301 304 305 306 307 308 308 309 310 310 310 311 312
300 298 301 313 312 311 309 303 296 292 289 291 292 292 294 293 296 294 296 296 293 296 291 290 289 287 291 289 290 294 293 293 293 292 295 295 293 287 303 301 302 300 303 296 294 293 287 286 282 287 289 288 290 297 296 296 294 292 289 287 288 289 286 282 280 292 290 284 278 279 277 285 297 306 304 302 305 308 309 308 308 308 309 309 310 311 312 312
299 292 297 312 311 310 303 293 293 295 291 288 287 291 291 300 293 295 296 296 296 291 296 293 293 293 290 290 291 292 292 293 294 294 294 291 299 297 301 304 303 304 301 293 295 300 293 291 287 283 287 289 294 298 301 300 298 296 293 291 293 289 289 283 279 282 289 288 291 285 282 282 299 304 303 303 306 309 309 309 307 308 309 310 311 312 312 312
298 297 308 310 311 308 298 290 292 289 289 292 296 295 296 296 294 295 293 296 292 293 292 295 294 291 294 292 292 290 293 292 292 291 298 297 299 301 304 305 305 303 303 298 302 301 309 286 285 288 292 294 297 299 300 300 299 295 295 296 293 289 290 287 284 285 283 285 283 284 280 285 301 307 305 305 306 308 309 309 307 307 307 308 309 310 310 310
301 301 304 309 311 306 295 283 283 284 290 294 294 293 297 296 294 293 292 294 294 291 292 294 294 295 291 293 292 290 295 284 295 295 294 297 297 306 305 305 306 301 301 298 295 303 288 289 286 282 283 284 288 292 293 297 297 292 292 298 297 294 295 295 295 290 283 287 286 282 279 283 299 307 307 306 306 306 306 307 308 306 307 308 308 308 308 309
301 305 304 306 306 303 293 296 293 288 291 292 292 292 294 297 296 295 295 294 296 295 296 293 295 295 292 294 293 293 294 292 290 295 297 300 298 305 303 304 305 302 306 310 309 306 291 290 286 280 278 275 276 279 283 284 289 293 298 300 300 298 295 289 284 284 281 288 289 281 283 291 300 304 304 304 304 304 306 307 307 306 306 306 307 307 306 306
298 287 297 302 301 301 300 303 300 296 293 293 287 294 295 294 295 296 295 294 297 297 295 296 296 295 293 293 292 291 291 294 291 291 292 295 299 301 304 303 303 304 310 311 309 304 293 296 293 289 284 282 285 290 295 295 293 291 295 297 298 298 298 295 289 283 282 285 284 289 290 293 295 299 301 302 302 301 302 304 304 304 304 305 305 305 304 304
300 292 290 288 298 298 297 299 299 298 289 295 285 295 292 294 296 296 296 292 298 295 295 296 295 293 293 292 291 290 292 291 295 292 296 296 299 300 304 305 304 307 309 306 309 301 293 288 295 294 294 293 295 295 298 297 292 295 295 295 298 297 295 293 287 285 294 284 282 289 294 293 294 298 300 300 301 301 302 302 303 303 304 304 303 303 303 302
290 294 298 302 292 286 289 291 298 296 298 297 292 297 294 294 295 290 295 295 295 297 292 294 294 294 293 294 294 285 291 291 293 288 296 297 298 299 298 302 302 307 305 303 306 301 295 285 294 296 295 297 297 298 298 296 295 296 295 295 294 297 297 292 292 296 294 282 283 290 293 294 295 298 299 299 300 299 300 301 302 303 303 302 301 300 300 300
302 300 301 304 292 296 296 298 299 297 296 295 292 295 293 294 293 296 294 293 293 294 294 282 291 293 293 293 291 288 291 284 283 295 294 294 296 295 292 297 300 303 303 302 302 301 294 285 295 296 292 295 297 297 297 295 296 296 294 295 295 294 295 296 295 297 296 292 293 293 294 293 297 298 299 299 300 299 299 300 301 301 300 301 300 299 299 299
297 296 294 302 301 295 298 298 298 296 292 295 286 294 295 295 293 295 295 294 286 293 296 293 294 293 294 294 293 290 292 294 292 286 296 296 295 295 293 294 291 298 301 297 301 302 295 286 295 296 288 291 295 297 296 294 294 292 293 294 295 294 294 295 295 294 296 295 294 294 293 291 297 300 298 298 298 298 297 296 295 296 298 298 298 297 297 298
306 308 304 297 292 294 296 297 294 292 289 290 287 295 296 296 295 296 295 298 296 293 296 293 294 293 295 294 294 294 297 297 297 295 297 296 289 298 292 294 299 294 299 297 298 300 297 287 296 292 284 285 294 294 294 295 293 290 289 291 292 292 289 293 289 294 292 291 293 293 289 289 296 297 296 296 295 295 294 294 294 294 295 295 296 296 296 296
310 311 307 300 289 295 291 295 296 292 285 291 295 295 294 296 297 296 287 297 296 297 298 297 296 293 292 293 293 294 297 296 296 297 296 296 297 299 299 299 300 296 294 296 299 294 295 290 287 287 284 284 291 295 292 290 287 284 284 288 291 295 296 295 295 296 295 296 291 287 290 295 296 295 292 291 292 292 292 293 293 293 294 294 294 294 295 295
Wind_Speed
9 9 10 10 10 10 10 11 11 11 11 11 11 12 12 12 12 13 13 14 14 15 15 15 15 16 16 16 17 17 15 10 12 8 7 16 9 7 2 5 14 13 8 3 4 3 5 6 8 8 8 5 3 5 6 8 5 3 4 4 7 6 7 7 3 2 1 2 3 6 3 3 4 5 2 4 3 12 12 13 10 14 13 15 14 17 17 15
10 9 9 10 10 10 10 10 11 11 11 12 12 12 12 13 13 13 14 14 15 15 15 15 16 16 17 16 17 17 13 10 11 12 17 12 11 14 5 9 11 12 7 3 7 8 7 8 9 9 7 5 3 4 4 2 5 4 3 4 9 4 6 6 5 2 1 0 2 1 5 3 2 4 2 2 4 10 13 9 11 13 14 14 13 15 16 15
11 11 9 10 10 10 10 11 11 11 11 12 12 12 12 12 12 13 14 15 15 16 15 16 16 16 17 17 17 15 12 9 8 12 17 22 23 15 11 10 11 11 8 5 8 8 8 9 9 9 6 5 4 7 7 4 5 5 3 5 8 7 10 9 3 4 5 5 6 3 2 0 4 4 4 3 6 10 12 9 8 12 12 14 13 13 12 12
10 11 11 10 10 11 11 10 11 11 11 12 13 13 13 12 13 13 14 15 15 15 16 16 17 17 17 17 17 12 8 9 5 7 3 10 20 21 12 11 11 11 6 6 7 9 9 9 9 9 5 7 5 8 6 5 5 3 6 5 4 2 4 7 6 5 5 5 4 5 5 8 1 3 3 6 7 5 4 9 12 11 12 11 12 12 10 10
11 11 11 11 11 11 11 12 10 12 12 12 13 13 13 13 13 13 13 14 15 15 16 16 17 17 17 17 16 8 8 4 2 2 4 2 14 16 13 13 11 8 7 4 5 10 10 11 8 8 5 4 7 4 6 7 8 1 9 10 9 10 11 6 4 5 6 6 0 2 5 4 3 1 1 4 5 4 6 8 12 15 14 14 12 9 8 8
12 11 11 12 11 12 12 12 12 12 12 12 12 13 13 13 13 14 14 14 15 15 15 16 17 17 17 17 11 6 2 2 2 1 3 8 14 14 12 10 10 6 5 5 5 5 7 9 9 5 4 4 4 5 4 7 7 8 5 4 5 7 7 4 5 3 4 4 2 3 1 5 3 3 4 5 3 0 7 11 13 13 12 12 11 10 9 7
12 12 11 12 11 12 12 12 12 13 12 12 13 13 13 13 14 14 14 14 15 15 15 16 15 17 17 17 7 3 3 9 7 3 9 5 8 11 10 9 7 3 4 5 7 6 7 9 7 5 4 4 8 9 8 8 6 5 5 3 8 9 12 9 5 5 5 4 1 2 3 1 4 3 1 4 4 6 14 12 13 12 12 12 11 9 9 7
13 12 12 12 12 12 12 13 13 13 13 13 13 14 14 15 14 14 14 15 15 15 16 15 15 15 16 10 4 3 4 9 14 8 10 7 6 9 10 6 6 4 5 8 7 9 8 8 9 6 6 6 4 8 7 8 7 8 9 7 9 8 6 4 3 2 1 3 2 5 5 6 4 3 2 5 4 13 14 14 14 13 11 9 10 8 7 7
13 13 13 13 13 12 12 13 14 13 14 13 13 14 15 14 14 15 15 15 15 15 16 15 15 14 12 5 2 6 7 10 11 9 8 7 6 7 9 7 7 7 5 6 8 9 6 5 9 8 5 9 10 11 5 5 5 5 6 5 5 7 6 5 5 3 2 1 1 1 4 5 6 6 5 5 6 6 12 14 13 12 11 10 9 7 5 6
13 13 13 13 13 13 13 13 14 14 14 14 13 14 15 15 15 15 15 15 15 15 16 15 15 13 8 4 4 2 9 6 8 10 9 9 8 7 7 6 11 8 7 8 7 9 9 5 8 6 7 7 6 7 8 8 6 10 10 10 10 9 6 4 4 2 3 4 3 5 4 5 6 4 4 5 2 18 12 14 11 11 11 8 7 6 4 5
13 13 13 13 14 13 14 14 14 15 15 14 14 14 15 15 15 16 15 16 15 16 16 15 12 8 6 5 3 6 6 3 5 8 11 11 11 10 11 8 11 9 8 7 10 10 11 13 9 5 3 3 3 6 5 4 5 6 1 4 5 4 3 3 3 4 1 2 3 4 7 5 6 1 6 7 5 13 16 13 12 12 10 8 7 6 3 4
13 13 14 14 14 14 14 15 15 15 15 15 14 15 16 15 16 16 16 15 16 15 14 12 10 4 6 5 6 10 8 1 8 9 10 12 9 10 10 9 12 8 10 8 10 11 13 11 6 3 4 3 5 4 6 8 6 5 4 2 4 4 6 5 6 6 1 2 4 2 3 4 5 8 8 7 3 11 14 12 11 11 9 8 6 6 3 3
13 13 13 13 14 14 14 15 15 16 16 15 15 15 15 16 16 17 16 16 13 14 15 12 7 4 4 4 10 17 16 12 8 6 7 7 5 6 8 8 11 9 11 9 9 9 6 3 3 5 3 3 3 3 5 13 6 5 5 3 4 4 7 8 5 6 5 2 5 4 5 8 6 9 9 11 5 12 12 11 10 9 9 7 6 5 5 4
13 14 14 14 14 15 15 15 15 16 17 16 16 16 16 16 17 17 16 17 17 15 13 10 4 4 3 7 7 6 10 12 15 7 8 8 7 8 9 7 10 10 8 10 11 5 7 5 4 4 3 4 4 9 10 5 5 2 2 3 4 3 8 7 7 8 12 6 5 8 7 7 6 8 8 11 6 12 12 12 11 10 8 7 6 6 6 4
13 14 13 13 14 15 16 16 16 17 17 18 17 16 16 17 18 17 17 16 14 12 10 7 4 3 2 9 9 18 23 14 12 9 8 9 8 6 8 8 11 11 11 12 7 2 1 1 1 1 3 3 4 5 6 3 1 3 2 4 3 7 11 8 8 11 12 4 8 7 4 9 8 9 12 9 9 12 12 10 11 10 8 8 6 7 8 6
14 14 14 13 14 15 16 16 16 17 17 18 18 18 18 19 17 16 16 14 14 12 6 4 6 6 4 9 5 6 2 4 9 7 6 9 8 7 8 9 8 11 12 7 3 2 3 2 1 2 3 4 6 5 5 4 4 2 6 3 5 6 12 7 8 9 14 5 9 8 5 4 4 9 10 16 7 17 13 11 10 12 11 7 6 6 6 7
14 14 14 14 14 15 17 16 16 17 18 18 19 19 18 19 18 15 14 13 7 5 5 3 5 6 1 3 9 6 7 6 3 6 5 8 9 7 8 6 6 7 3 1 5 2 1 2 1 2 3 4 3 4 4 5 4 5 5 7 6 7 6 6 7 11 14 5 5 6 4 8 9 10 10 7 17 17 14 13 11 12 10 8 6 6 6 8
14 14 14 14 14 15 17 17 16 17 18 18 17 19 17 19 14 9 10 6 4 5 6 7 5 3 10 8 7 9 6 5 8 6 7 7 8 5 5 4 3 4 3 3 3 3 2 2 2 3 2 4 4 3 6 7 8 6 4 4 6 8 10 4 2 5 11 5 9 6 6 11 8 8 5 6 9 13 12 13 12 12 11 8 6 8 7 7
14 14 14 14 14 16 16 17 17 17 18 18 19 20 20 11 5 4 3 2 3 2 1 4 5 5 2 9 16 7 8 9 7 7 9 7 7 3 4 0 2 3 2 1 1 4 1 2 1 3 5 5 7 8 6 11 9 7 7 8 6 6 6 5 12 12 11 8 7 7 7 7 7 7 4 2 8 16 14 12 9 10 10 8 8 7 9 8
14 14 14 14 14 15 16 16 17 17 17 12 10 8 1 2 1 2 2 5 8 9 5 5 12 6 11 12 5 8 6 11 8 7 7 7 6 6 6 5 4 4 3 6 3 7 2 5 6 7 7 7 6 8 10 11 9 11 10 8 3 7 10 5 10 8 6 7 4 7 5 4 5 5 5 2 3 10 12 12 9 10 10 9 8 6 7 7
14 14 14 14 15 16 16 17 17 15 16 9 9 5 1 1 4 2 4 9 14 15 17 11 14 14 11 8 11 6 10 10 5 7 8 7 5 4 6 8 6 6 7 8 6 3 4 5 7 7 9 9 8 7 9 9 8 7 7 8 10 6 8 6 11 7 4 5 4 2 0 2 5 5 8 1 2 2 17 13 11 11 10 10 11 9 9 6
14 14 14 15 15 16 17 17 17 15 11 6 5 3 6 7 3 3 2 5 10 18 17 17 13 15 15 17 16 5 3 7 9 12 5 11 5 7 5 9 8 9 7 7 6 3 5 8 8 10 10 8 9 7 8 9 8 6 4 4 5 7 8 4 8 4 4 3 6 3 1 3 5 5 7 7 3 5 12 16 16 16 12 10 10 10 9 8
13 14 15 15 15 17 17 18 15 13 8 4 5 8 7 9 11 6 4 6 11 11 14 15 14 15 16 14 11 10 9 7 10 12 9 10 6 9 6 8 7 7 8 9 6 5 5 7 12 12 9 8 9 11 8 7 7 5 5 5 7 6 7 2 2 8 3 3 1 3 1 3 3 5 6 8 5 2 13 16 18 17 16 14 13 13 12 11
13 14 15 15 16 16 18 17 17 11 7 10 9 10 9 7 9 6 3 3 6 9 13 15 15 13 15 13 4 8 5 5 7 13 11 10 8 9 4 11 8 8 8 11 12 7 9 9 12 10 10 9 9 8 8 5 4 4 9 2 2 6 7 1 2 1 3 1 4 4 2 4 2 5 6 7 7 7 5 11 13 12 16 17 16 14 16 17
13 14 15 16 16 18 17 19 7 6 6 7 10 14 13 12 11 3 2 3 4 8 9 11 10 11 12 9 5 5 6 4 5 6 13 13 9 6 7 6 5 9 9 11 12 11 11 13 9 13 11 11 9 9 9 4 5 1 0 0 5 6 10 11 7 6 3 5 2 7 1 3 5 7 9 8 7 3 6 7 11 15 13 12 13 15 11 12
14 14 15 15 16 17 20 8 2 8 8 8 9 9 10 11 3 4 1 2 5 3 6 6 7 9 7 11 7 5 9 7 8 2 13 12 10 9 4 6 6 7 12 10 10 5 9 6 10 14 14 12 12 8 7 6 3 2 2 6 7 8 9 8 10 4 2 1 4 3 1 4 3 5 7 9 6 13 4 7 8 12 14 14 15 12 11 12
14 14 15 15 14 15 7 2 8 11 6 2 4 4 3 4 4 2 0 2 2 4 7 2 10 1 6 10 9 6 5 8 7 4 11 11 11 7 5 7 5 5 5 4 3 6 7 9 8 8 13 14 11 10 8 8 5 1 1 5 5 7 7 11 12 9 6 2 1 0 4 3 3 6 5 5 6 8 8 7 10 8 15 21 15 14 12 12
14 14 14 15 14 10 6 8 11 7 7 7 10 10 4 6 4 1 1 0 3 6 6 2 3 2 1 12 13 8 8 4 9 9 8 10 7 8 8 7 7 9 8 4 8 2 9 8 8 7 3 5 7 5 2 6 5 3 5 11 11 8 11 8 7 7 4 0 4 1 2 4 1 5 7 9 8 1 5 8 5 4 3 16 15 16 11 8
14 14 15 15 16 18 10 6 5 8 5 8 13 10 6 4 2 2 2 1 2 2 2 6 3 4 2 12 12 6 12 3 5 7 8 9 12 2 8 11 7 5 9 9 6 4 4 10 11 11 5 6 4 4 2 4 3 3 4 6 7 6 2 1 2 4 4 1 2 1 0 3 5 4 5 5 3 2 6 7 10 15 14 10 9 10 10 9
14 14 14 15 12 8 2 4 8 10 10 13 12 12 6 3 1 2 1 3 3 2 6 2 2 7 5 11 7 9 10 6 5 7 9 7 11 6 3 3 8 9 8 8 10 9 6 5 8 6 5 4 2 1 1 3 4 2 8 7 9 8 3 2 1 1 4 1 2 5 5 4 5 3 2 4 3 2 3 8 7 9 13 13 13 11 9 9
14 14 14 12 6 5 7 6 9 6 9 10 9 5 2 1 1 1 1 4 2 5 4 2 6 7 9 12 7 9 10 9 7 8 6 7 7 6 1 5 3 4 3 2 8 12 11 7 4 1 2 4 2 2 5 7 6 8 3 6 1 4 1 3 1 1 2 4 2 2 5 3 5 2 5 3 4 6 6 9 13 8 8 8 7 9 8 6
13 14 14 10 9 7 5 5 4 10 10 12 10 2 1 2 0 3 4 6 5 2 5 5 8 9 12 11 6 9 9 9 8 9 9 8 6 6 5 4 4 3 6 2 6 7 10 6 1 4 4 7 9 8 4 9 9 8 5 1 5 1 2 2 1 2 3 5 3 5 9 6 3 3 0 7 7 8 10 9 7 8 9 8 6 5 6 9
12 12 18 13 12 8 12 14 12 10 12 12 3 1 1 1 2 5 6 3 2 8 5 9 11 11 11 11 9 11 10 8 8 7 9 10 6 8 6 7 3 5 1 4 4 5 6 4 5 6 3 7 5 5 3 4 4 4 8 3 4 2 1 2 3 2 2 3 4 8 5 2 1 1 4 6 7 8 9 9 9 10 6 4 9 9 10 10
14 15 10 9 9 10 10 8 8 9 10 8 2 1 1 1 3 6 10 6 4 5 3 9 14 10 12 8 9 8 8 9 8 4 8 7 8 5 6 12 10 5 5 2 4 4 2 4 7 3 4 6 7 6 5 2 6 4 2 4 7 4 2 3 3 4 7 7 3 3 2 2 3 2 3 4 8 9 9 10 9 10 11 9 8 9 10 9
16 16 13 11 11 13 13 12 8 10 5 5 1 2 3 4 2 2 4 4 6 10 11 12 13 12 11 10 11 13 10 6 9 8 7 7 8 5 7 9 13 7 4 2 2 0 8 5 5 11 6 10 8 6 4 5 2 4 4 5 3 6 3 5 3 1 1 2 3 2 1 0 4 3 2 6 10 11 10 12 13 14 12 11 11 11 10 11
14 7 7 6 5 7 11 10 10 8 6 2 1 2 6 5 2 4 3 5 8 5 4 12 5 4 2 7 5 6 14 4 13 6 6 6 8 9 7 5 9 12 4 6 2 2 2 3 10 12 13 7 9 7 6 4 3 4 8 8 9 6 5 2 4 2 3 3 3 3 2 3 2 2 4 8 11 10 11 12 12 11 10 11 10 10 12 11
8 8 5 6 11 8 9 10 8 7 4 2 1 4 3 4 12 10 5 3 9 9 9 3 1 1 1 2 3 4 8 10 7 7 3 8 4 9 9 6 11 11 13 5 3 3 3 5 4 8 12 9 8 13 10 9 8 3 2 6 5 6 3 3 3 1 2 3 3 4 6 2 1 1 6 6 8 9 10 10 10 12 12 13 11 13 13 12
8 7 9 10 11 8 10 10 9 5 3 2 3 5 3 9 8 8 8 5 5 11 7 2 1 7 3 4 4 8 8 6 7 7 2 12 3 12 9 7 13 11 13 12 4 3 5 4 3 1 2 8 10 7 7 8 7 8 9 3 5 2 5 3 0 1 0 0 1 1 5 2 1 2 5 2 5 6 8 8 12 12 12 12 11 11 11 10
7 4 5 6 7 12 11 11 7 5 2 3 2 3 5 7 10 12 2 3 0 6 4 2 1 1 3 3 4 6 14 7 7 5 3 5 2 1 3 6 8 15 13 15 9 4 1 2 4 0 4 3 7 6 4 5 6 6 4 6 2 5 3 1 4 3 6 2 2 2 8 0 1 0 3 6 6 7 6 8 9 11 11 9 8 8 9 9
5 2 3 2 8 13 12 10 5 3 3 3 4 6 4 9 11 9 3 4 3 4 2 5 7 3 5 11 3 5 9 8 7 3 4 1 2 8 6 5 6 3 14 15 10 7 3 2 1 5 3 3 5 5 7 8 6 4 4 4 2 1 4 4 0 3 4 3 3 3 1 2 1 2 2 2 4 5 7 9 8 9 10 9 8 7 7 7
4 3 4 4 12 13 11 6 3 6 4 3 6 9 10 8 9 5 2 8 3 3 2 4 3 3 2 4 7 12 5 4 3 2 2 5 4 1 5 10 6 8 10 13 13 4 2 3 5 5 4 2 4 5 5 8 9 6 6 5 4 0 1 2 7 1 2 1 2 1 2 3 1 4 4 1 2 7 11 11 9 9 10 8 5 6 6 6
3 1 4 0 13 13 8 6 3 3 3 6 7 6 7 5 10 5 2 3 2 2 1 2 3 3 4 4 5 5 3 2 3 1 1 3 4 5 6 12 8 5 6 3 2 2 3 3 4 4 5 4 8 4 10 7 2 3 9 8 9 3 1 2 3 2 1 1 5 5 7 2 0 2 4 3 4 5 9 12 9 7 8 6 5 6 7 8
3 3 6 6 10 10 6 2 3 4 5 7 9 13 14 10 4 4 4 3 3 2 2 1 2 3 2 2 4 4 5 2 8 7 3 4 3 5 11 14 12 11 6 6 5 8 6 3 3 1 2 4 8 10 4 9 9 6 3 2 6 7 6 6 6 6 5 2 4 1 1 2 0 2 5 4 4 7 8 9 10 8 5 5 8 9 9 10
2 1 4 3 7 7 3 4 4 6 6 8 10 12 9 2 2 0 2 1 1 2 1 1 3 1 3 6 4 3 5 3 2 1 2 4 2 6 13 12 11 8 8 2 2 6 3 3 7 1 0 3 8 10 8 7 8 3 3 11 10 3 3 2 4 3 5 4 9 7 5 3 2 5 4 6 7 9 11 10 8 8 6 8 9 8 10 11
3 1 1 2 4 4 4 1 2 1 4 5 6 8 4 0 2 4 5 6 3 1 2 3 3 5 3 1 2 2 5 2 1 3 9 2 2 6 10 11 11 8 7 6 10 3 4 2 2 3 4 3 3 2 3 6 6 3 9 12 12 8 6 6 3 2 4 5 4 4 2 0 5 6 6 7 8 9 10 9 8 8 8 7 8 9 10 10
1 1 1 2 3 3 4 4 4 4 6 5 5 3 3 2 2 2 5 5 8 4 3 2 1 5 4 6 5 5 5 4 2 2 2 2 3 6 7 8 11 9 10 13 12 4 1 2 5 4 4 5 3 4 4 4 2 9 10 13 10 7 8 7 5 5 2 1 6 4 3 9 6 8 7 7 7 8 9 8 8 7 6 7 9 10 9 9
3 2 2 1 1 4 4 3 5 4 4 4 1 0 1 3 2 2 4 1 0 4 4 1 2 0 2 3 3 4 5 7 10 7 9 8 3 3 6 7 8 11 11 8 13 3 2 5 3 4 5 5 4 3 2 3 6 9 11 9 11 8 3 8 7 3 0 6 4 3 3 8 4 7 7 9 9 9 9 8 8 7 8 10 10 11 11 10
1 3 4 1 1 3 4 6 8 7 9 8 2 0 2 4 2 1 4 4 6 1 0 3 3 2 3 1 2 1 1 3 6 2 3 5 3 4 4 7 6 5 8 5 6 4 2 2 3 3 4 4 4 7 6 7 7 9 12 11 12 10 10 8 3 4 4 1 7 8 3 5 5 8 8 8 8 9 9 10 9 9 10 10 12 11 10 10
1 1 2 3 1 2 7 9 4 7 4 10 0 1 2 2 1 1 1 2 4 2 1 1 3 5 5 8 3 3 1 1 3 3 2 1 3 1 3 3 3 5 5 3 5 2 4 4 3 3 2 3 5 6 6 9 5 13 12 11 9 10 8 7 6 5 6 4 5 11 7 6 5 8 9 9 9 10 10 9 10 11 10 10 11 10 10 9
1 1 2 1 1 4 6 8 9 10 6 2 1 3 2 1 4 4 3 1 0 2 3 3 2 4 4 11 4 4 2 5 4 3 0 3 1 1 1 1 1 2 3 1 1 2 3 2 4 1 2 2 4 6 8 8 7 10 12 12 8 6 9 9 4 6 8 11 8 13 11 8 3 7 10 10 9 9 12 13 12 11 10 10 10 9 8 8
3 1 1 3 6 7 8 9 2 2 1 2 0 1 1 1 1 0 3 3 1 2 1 2 2 9 8 9 9 6 3 5 3 3 2 4 6 3 3 1 2 3 2 1 1 1 2 2 0 1 4 2 2 6 6 10 11 12 10 12 10 6 7 6 3 4 1 7 8 9 8 5 6 9 11 11 12 13 12 10 9 8 11 10 10 9 9 9
1 4 4 2 3 9 5 3 0 3 0 1 1 3 1 2 4 1 1 0 5 4 2 2 4 3 3 4 6 4 5 6 6 4 4 7 1 3 4 5 6 4 3 2 0 2 2 3 2 0 3 0 4 6 8 6 5 5 6 5 7 4 3 3 6 7 5 3 8 4 3 4 7 7 12 11 12 13 12 10 7 9 9 10 10 10 9 9
Wind_Direction
328 333 332 331 333 333 334 331 331 332 331 330 331 331 329 330 331 329 325 324 323 322 322 323 323 323 324 325 324 325 325 316 307 294 260 242 221 218 108 127 156 162 162 166 244 234 183 209 228 238 243 227 230 242 249 265 245 189 214 220 248 244 253 249 269 79 196 66 56 73 305 1 50 340 349 16 354 87 75 78 65 63 80 100 110 120 128 131
324 328 331 330 329 330 331 330 329 330 328 328 328 328 330 329 329 328 326 324 322 321 322 323 323 324 325 325 327 325 326 300 288 270 240 246 196 221 169 138 143 160 163 189 217 218 191 204 218 223 226 231 200 229 198 232 223 204 222 195 242 222 269 282 321 117 96 227 35 100 66 3 19 8 325 34 343 102 86 72 86 77 86 95 104 119 130 138
325 327 326 327 326 326 326 326 326 327 327 326 326 327 327 325 325 325 324 323 321 321 321 322 324 324 325 325 325 330 324 301 280 257 256 233 222 225 185 162 160 163 170 190 219 223 207 198 207 211 215 240 212 232 203 236 211 215 217 232 248 230 251 278 279 81 68 29 36 32 66 57 321 17 322 0 336 95 116 132 110 119 121 125 130 132 138 140
320 324 325 323 323 322 321 320 324 324 325 325 325 325 323 324 325 325 323 322 320 320 320 321 323 324 323 323 325 326 307 281 277 248 249 291 200 204 167 165 168 176 191 225 237 232 224 236 208 206 208 218 246 228 217 216 219 181 216 232 252 304 315 296 325 46 65 55 29 346 357 325 18 97 334 325 343 125 141 150 138 143 134 127 130 136 136 142
315 318 319 320 319 319 318 318 320 323 324 323 323 323 323 322 323 323 321 320 319 318 319 320 322 322 323 321 320 321 306 6 274 23 326 106 143 155 163 169 169 175 192 221 268 283 278 243 232 200 221 223 237 248 232 213 204 218 214 222 244 265 272 266 32 79 75 79 87 298 304 292 314 66 73 294 305 255 172 165 131 129 132 133 132 134 133 137
314 317 316 315 317 318 317 317 318 320 320 320 319 320 320 321 321 321 320 319 316 316 318 319 321 323 323 320 309 294 316 139 29 1 101 126 138 150 160 159 162 175 190 229 240 274 268 254 238 210 206 234 240 227 230 232 169 233 261 258 238 234 258 274 325 83 81 68 33 351 285 320 39 336 293 293 246 93 116 116 111 118 125 127 129 134 132 146
314 317 316 314 314 315 316 314 315 317 318 317 318 318 319 319 319 318 318 317 314 314 315 318 320 324 326 317 269 203 244 276 319 176 150 173 150 143 135 133 142 180 191 206 228 241 253 239 230 216 211 234 249 252 250 218 204 228 249 221 245 243 246 262 281 74 71 65 292 213 353 334 20 331 284 283 304 106 111 113 101 103 107 114 118 127 143 152
314 316 316 315 313 312 314 314 312 315 315 315 316 318 318 318 318 317 316 314 312 311 314 317 320 323 333 335 323 197 190 256 252 186 164 152 147 125 126 127 155 172 189 207 210 225 256 245 226 223 226 201 225 230 252 252 206 217 245 255 273 286 272 275 223 225 128 221 237 284 292 286 275 247 282 275 316 103 117 116 113 112 105 104 116 129 141 145
317 313 315 313 313 313 312 311 311 311 312 314 313 315 316 316 315 315 312 309 310 310 312 315 319 321 323 294 296 322 243 236 217 147 136 157 151 141 154 150 183 176 185 211 232 245 239 238 243 231 211 219 246 254 253 249 245 204 243 234 234 245 260 262 288 295 157 100 184 300 251 247 241 236 249 270 282 109 105 106 115 117 115 123 126 129 133 141
315 315 313 315 314 312 312 310 308 309 310 311 312 312 313 312 311 310 308 307 307 309 311 314 316 319 315 279 272 244 258 115 112 147 159 162 153 160 198 164 166 178 184 207 229 240 246 237 232 233 258 280 287 279 289 278 239 195 218 232 252 261 276 286 261 213 204 195 192 206 232 246 247 194 262 240 211 120 112 111 114 108 104 107 107 95 81 130
311 310 312 311 314 314 311 310 309 308 308 310 310 309 309 309 308 305 306 305 305 307 311 314 314 316 295 267 252 239 263 142 152 152 166 160 159 169 192 174 174 180 195 196 223 228 238 250 244 250 266 238 292 267 252 241 298 301 291 287 272 275 275 297 310 291 154 225 203 259 270 281 287 195 224 235 178 133 125 124 128 120 121 110 103 97 71 56
312 310 311 311 309 311 311 310 308 307 307 308 309 308 308 307 306 303 302 304 304 305 310 315 317 293 261 262 238 235 260 14 167 163 158 155 177 193 192 176 175 192 190 206 222 227 233 239 258 249 223 35 257 303 285 329 315 291 308 279 254 275 279 269 264 274 170 233 182 193 276 252 227 237 247 250 155 146 132 132 126 122 115 108 115 115 89 98
312 313 311 313 312 310 307 307 307 307 306 306 308 308 305 304 302 301 301 302 301 303 306 306 307 266 291 300 231 237 250 275 286 152 135 177 189 196 211 167 180 206 200 221 238 244 246 276 312 313 323 301 282 226 317 305 279 271 265 270 316 313 275 243 226 231 232 189 197 153 257 264 237 237 232 234 187 148 134 133 127 118 117 121 128 123 119 100
313 310 311 313 312 309 308 306 308 308 307 307 307 306 304 302 299 297 295 292 296 297 297 292 273 277 249 248 270 260 238 237 252 187 167 182 194 201 216 166 181 218 230 235 248 242 241 275 314 314 349 296 301 352 332 319 305 302 268 237 244 297 258 231 225 203 226 188 184 129 237 265 259 254 240 238 169 146 131 135 128 122 119 122 122 122 127 141
313 311 310 311 311 310 308 308 308 309 309 307 305 304 303 299 295 291 290 289 289 296 299 303 222 224 193 268 255 255 249 250 240 203 164 176 207 183 216 174 184 209 228 236 253 312 32 346 256 308 283 306 275 279 288 275 263 229 313 284 256 189 260 256 219 207 208 166 135 128 240 255 245 250 253 232 205 137 129 133 129 128 128 133 143 139 138 159
313 312 308 310 310 309 308 308 310 310 309 308 306 305 301 295 290 287 284 281 287 288 276 253 206 213 326 282 261 317 272 199 203 188 178 189 203 203 200 184 192 213 216 228 285 264 199 331 225 191 268 299 278 252 271 317 291 203 182 239 238 204 249 273 240 205 198 162 158 137 233 283 288 252 246 227 167 129 131 134 137 138 141 145 153 141 128 119
313 309 309 310 313 311 309 309 312 310 310 308 308 302 298 286 279 277 278 278 282 242 213 225 155 191 175 240 339 247 209 202 204 183 179 202 201 209 188 174 201 220 227 275 214 297 280 213 143 281 237 230 219 225 240 265 268 254 188 217 226 240 258 269 228 180 184 155 160 147 224 257 257 284 309 119 126 136 140 150 149 144 146 155 142 137 142 132
311 311 310 310 312 311 309 309 312 312 311 311 312 302 290 279 273 281 285 256 209 234 224 248 288 234 266 263 278 232 188 185 209 184 193 188 232 202 186 180 156 225 155 275 230 222 158 214 150 215 221 228 242 226 177 221 205 210 199 212 256 251 250 222 156 170 177 152 156 173 197 249 256 281 298 111 131 130 146 156 147 147 150 141 133 131 122 126
310 309 310 312 314 312 310 310 312 314 314 316 308 291 271 260 262 197 285 180 140 56 338 213 153 156 102 201 223 225 193 181 183 173 183 184 219 227 175 111 114 197 186 168 247 205 162 245 182 237 244 223 223 216 194 234 242 235 198 197 227 255 254 221 190 174 176 168 144 152 201 244 274 287 292 233 162 132 158 145 140 140 141 142 154 154 144 136
310 309 311 311 312 310 311 311 311 314 320 319 330 323 335 90 145 60 205 243 240 219 262 159 204 255 303 293 272 201 206 153 179 198 166 191 182 221 178 164 178 216 194 184 194 199 132 179 205 208 225 234 228 225 237 251 255 270 287 298 278 270 272 262 150 169 147 129 181 198 212 229 286 289 283 297 259 122 129 139 137 148 150 152 160 165 134 137
309 313 312 313 312 312 311 311 310 312 317 318 314 316 226 333 1 98 186 219 220 235 251 246 212 232 246 284 301 155 139 170 196 173 198 165 196 186 180 168 176 202 218 200 203 208 177 181 228 218 220 233 242 228 241 268 284 288 301 301 301 315 295 282 151 168 136 112 226 140 76 304 290 296 298 309 86 115 144 144 153 157 158 163 166 168 155 142
311 311 312 313 314 312 311 308 309 308 312 307 282 259 279 272 301 262 271 274 230 226 235 243 235 240 251 256 261 258 166 164 188 173 189 163 186 188 164 180 178 204 201 217 217 149 202 208 219 226 225 227 245 249 239 233 255 273 250 277 316 309 285 335 145 102 121 95 200 134 174 249 266 264 284 298 235 175 165 155 164 166 166 169 171 168 148 137
312 312 312 313 313 312 311 308 305 310 307 259 215 221 250 249 278 334 340 279 276 243 228 228 233 238 256 261 265 176 188 189 186 173 171 174 155 210 155 193 191 212 190 208 209 172 204 234 219 218 227 225 238 241 235 238 237 237 270 261 251 268 303 314 306 131 157 148 179 71 156 272 307 319 308 294 276 219 170 167 168 166 168 172 173 172 165 153
313 314 313 314 315 315 311 312 307 294 228 218 245 232 244 283 300 320 339 257 295 275 225 218 213 216 230 242 220 193 213 178 204 174 149 175 185 190 218 185 204 211 210 196 221 201 203 215 207 219 227 221 234 246 244 221 246 237 232 178 261 281 283 246 240 55 184 315 121 127 71 345 313 281 300 293 295 278 167 173 168 172 175 178 177 173 168 167
313 314 314 313 317 316 316 313 298 232 230 213 239 245 249 260 275 358 45 294 235 257 215 231 200 208 219 231 249 207 167 288 252 159 157 178 176 151 228 184 207 207 221 200 209 230 230 220 186 205 226 234 233 248 245 204 222 317 152 195 269 284 305 316 331 9 26 328 289 134 29 294 248 232 245 259 275 250 250 213 176 180 182 175 172 183 183 167
311 310 314 314 317 324 314 300 264 347 305 250 238 251 217 233 241 49 40 271 288 251 110 215 145 203 181 200 217 204 139 219 242 192 162 183 180 186 174 233 180 204 213 221 208 211 234 225 186 192 207 223 232 229 232 206 192 102 258 191 227 257 280 305 303 10 358 200 304 69 122 267 313 248 240 245 234 255 264 229 231 168 177 179 180 176 173 170
309 309 312 315 318 328 332 268 360 315 281 284 315 311 4 40 13 5 340 253 315 207 149 50 160 195 196 172 188 146 200 221 202 209 173 174 196 181 207 213 166 244 218 212 217 229 213 235 236 206 196 209 214 216 222 179 124 220 277 283 222 232 254 260 263 256 234 214 318 36 145 205 293 289 257 226 246 267 268 265 237 201 169 178 177 169 166 172
307 307 309 312 314 317 274 305 319 314 256 299 313 324 2 19 351 50 93 323 273 150 132 215 237 124 215 155 187 180 216 144 181 195 195 174 212 166 222 195 206 201 232 224 200 258 192 215 235 248 198 193 202 179 159 133 134 198 198 242 260 220 233 249 257 257 228 94 305 104 321 324 258 275 295 294 282 98 359 318 341 322 180 150 168 167 160 146
305 306 309 310 313 302 273 249 289 270 264 323 310 313 12 345 45 83 186 165 213 101 84 122 287 141 248 166 178 171 220 213 220 155 185 167 200 199 195 239 259 241 219 229 206 257 218 203 206 225 211 209 198 152 173 129 166 202 224 236 247 264 194 221 75 347 338 161 269 288 178 263 291 273 282 256 199 32 86 37 40 72 62 90 110 81 101 114
302 304 307 311 317 298 281 193 227 254 302 299 300 301 331 0 9 56 58 282 186 181 205 92 175 179 197 160 182 177 223 238 251 158 180 173 191 216 282 219 232 254 265 225 250 247 260 206 196 215 196 173 118 107 127 203 226 203 196 231 259 264 267 88 78 41 28 356 252 214 221 186 281 276 4 47 307 226 128 82 42 37 73 93 107 120 139 150
304 303 302 307 289 305 323 279 244 251 283 299 300 310 339 339 143 170 154 246 231 84 111 137 132 162 179 168 188 190 218 242 244 158 178 160 172 210 244 303 270 303 268 298 225 243 256 256 223 235 193 111 66 296 183 247 226 216 182 206 282 344 293 6 357 52 231 273 257 306 296 195 228 309 355 10 38 42 75 92 90 69 64 82 105 127 139 139
300 301 297 294 273 279 264 238 40 335 318 312 303 334 44 87 206 188 207 349 261 183 176 184 173 175 183 179 195 180 199 219 256 168 171 169 158 187 194 198 171 210 281 200 259 249 251 243 254 247 161 165 167 208 241 204 229 202 213 61 138 251 67 269 14 306 233 219 238 218 246 281 252 201 264 24 31 35 47 62 78 95 97 92 83 72 63 35
297 294 293 282 275 254 247 260 301 305 306 304 340 327 114 146 224 240 264 288 189 172 177 163 169 182 182 177 207 180 193 219 210 195 169 168 148 193 189 210 183 162 187 234 240 202 258 256 241 259 182 169 116 176 199 212 240 127 163 145 122 172 171 224 237 203 262 252 211 223 214 205 242 319 349 33 26 47 54 53 59 67 68 86 58 37 35 49
301 296 288 269 263 250 250 257 266 291 305 314 299 208 314 172 249 202 241 249 287 233 261 179 160 184 176 195 205 172 182 219 176 191 170 161 172 173 195 206 230 199 215 260 209 176 180 241 263 223 228 163 193 178 176 203 167 187 176 155 166 158 147 190 192 200 206 216 246 142 96 205 136 238 278 47 46 36 43 53 55 52 54 60 53 43 45 40
298 289 270 267 249 243 238 244 256 261 287 293 252 191 148 227 286 273 232 274 273 260 254 164 164 184 176 203 205 186 179 192 198 171 184 140 189 175 180 195 219 229 201 181 271 2 199 199 216 220 239 170 190 177 199 259 288 213 176 162 141 213 162 223 208 162 173 34 3 337 128 302 155 235 280 64 56 45 41 44 44 47 52 47 41 33 33 39
299 275 242 238 214 231 207 213 224 243 240 273 173 172 221 199 204 196 250 276 294 296 294 146 148 168 163 205 228 211 175 206 182 172 175 176 175 193 185 184 205 213 190 182 183 241 269 267 190 200 217 168 163 164 210 197 192 246 177 189 206 194 153 198 282 232 98 64 259 172 44 351 344 6 13 56 55 37 35 38 38 40 41 47 43 40 42 47
301 308 276 237 222 206 181 185 185 201 208 242 205 231 233 267 251 280 331 311 321 291 287 169 356 93 221 224 230 208 192 203 174 170 168 184 203 190 196 206 187 201 222 154 249 220 146 246 237 181 205 169 184 169 193 192 206 276 236 240 207 198 207 152 208 291 173 148 252 147 169 206 142 296 312 54 66 40 34 33 36 39 38 41 35 42 47 49
315 295 275 261 251 179 168 174 176 182 206 240 232 266 260 259 281 297 307 328 354 338 316 80 341 184 198 215 228 217 149 184 160 172 238 168 266 181 199 209 182 206 205 221 184 251 207 273 298 357 336 177 168 170 195 215 210 199 216 221 169 208 220 230 219 271 135 222 224 212 110 76 79 164 331 21 73 54 36 37 42 38 44 48 45 48 53 55
291 287 303 245 195 159 157 169 176 165 196 207 244 241 245 257 266 247 268 311 198 315 348 11 32 259 327 257 264 206 157 186 163 161 171 171 210 248 248 198 188 192 202 203 218 236 133 136 305 353 244 170 186 157 211 224 237 246 285 287 209 125 164 141 196 180 121 229 87 298 87 210 81 176 337 25 60 66 56 54 59 56 55 51 46 43 48 50
282 264 254 284 149 139 151 162 164 196 220 211 207 240 269 259 250 254 102 46 356 340 333 0 343 332 350 306 312 10 179 162 152 153 154 311 114 285 28 3 25 239 207 190 207 179 268 125 197 292 292 329 245 175 192 175 191 229 248 295 325 179 191 136 251 170 153 176 166 173 42 278 269 148 74 63 59 80 83 73 65 65 62 52 43 45 48 49
241 288 283 270 126 130 140 158 189 202 212 273 268 259 266 271 296 118 21 61 334 308 291 331 340 3 266 324 4 6 344 40 102 94 96 50 86 172 359 357 22 32 308 203 203 165 119 127 195 267 322 318 249 174 172 184 175 189 173 219 195 179 5 173 274 269 184 96 206 108 213 268 308 79 114 77 43 89 90 85 74 69 70 61 44 49 52 46
270 208 259 102 121 132 147 162 232 200 230 226 211 222 245 251 268 94 27 146 218 294 249 230 293 310 321 332 335 1 339 63 44 92 69 105 28 58 341 359 25 40 53 43 314 359 153 171 117 195 223 212 275 221 191 216 221 201 161 212 214 195 167 108 199 277 59 23 94 137 121 272 267 108 103 82 49 54 84 90 86 78 76 77 57 49 50 44
216 269 274 291 134 148 150 242 206 222 228 243 262 257 255 256 310 20 4 125 202 177 285 259 317 3 303 347 348 345 351 68 34 11 25 88 24 31 17 27 28 21 45 13 347 349 3 97 121 250 351 314 320 309 303 199 197 254 287 289 179 204 204 185 182 184 147 183 89 51 68 242 306 105 112 126 93 82 77 81 83 76 76 63 59 54 49 50
331 308 299 159 148 176 185 195 196 231 241 263 253 264 271 347 4 171 223 219 239 154 222 294 336 295 283 354 339 335 46 46 36 117 71 54 20 16 38 31 38 45 27 330 80 303 39 317 111 81 23 344 337 341 346 16 45 45 50 10 357 309 213 186 91 60 95 216 156 127 178 217 180 127 111 89 71 67 71 66 64 72 58 62 58 45 49 51
314 339 358 277 165 190 218 264 310 305 266 264 272 246 286 76 277 299 350 339 290 254 59 1 321 4 313 213 346 7 327 32 1 86 122 64 106 42 39 38 35 57 34 356 7 321 109 272 69 125 140 157 222 274 346 312 318 295 40 23 21 25 53 51 48 11 94 331 65 81 117 43 147 136 114 102 93 75 66 69 66 63 61 59 65 57 47 44
174 165 257 262 170 218 272 285 287 270 290 300 287 284 260 293 241 198 0 319 324 67 143 343 3 33 346 9 11 351 336 352 39 309 52 45 70 34 8 44 50 32 15 26 13 15 68 14 79 103 122 149 154 189 217 243 313 40 20 31 20 26 61 91 110 64 95 134 57 345 164 145 147 134 130 102 83 82 75 67 64 59 60 68 64 59 51 40
321 240 134 200 157 242 255 237 237 223 246 223 244 229 307 290 282 2 93 299 105 11 5 58 303 36 300 67 6 19 346 348 6 23 51 86 61 82 30 13 28 22 29 35 357 26 54 56 14 87 62 127 117 126 190 314 52 40 44 24 23 26 31 86 100 170 114 84 23 288 330 120 114 95 100 96 87 82 75 71 71 59 58 57 58 56 48 38
179 292 311 275 130 208 207 262 228 251 260 257 224 273 245 239 189 133 0 292 316 170 38 5 322 296 313 115 127 95 36 346 56 89 304 51 80 20 34 8 44 19 46 20 351 58 65 91 341 51 51 60 49 69 65 66 56 62 55 36 23 8 42 62 59 100 77 121 177 200 165 117 95 82 82 83 86 82 77 71 64 58 57 61 60 54 46 35
244 220 291 309 290 274 191 225 241 222 218 266 66 37 325 296 234 163 201 176 259 87 138 59 297 277 239 225 130 181 109 166 27 80 97 29 25 23 44 356 23 27 36 43 27 39 73 5 324 83 86 77 69 65 65 78 66 62 53 46 24 19 21 41 43 11 119 144 153 132 94 86 92 109 97 83 73 72 66 58 57 57 58 60 62 57 49 38
170 81 258 307 351 283 291 258 226 215 193 232 54 198 184 176 269 144 214 63 1 319 226 148 279 269 347 12 11 110 106 128 147 95 22 116 348 27 136 154 227 356 64 54 80 353 91 235 272 14 81 93 92 80 76 76 89 72 44 41 32 24 29 19 35 17 43 87 113 115 113 102 86 87 85 77 72 71 60 52 46 44 45 56 63 59 51 46
281 278 21 351 321 291 253 230 197 185 119 28 69 21 21 192 237 138 279 73 63 199 12 296 330 29 2 45 5 54 85 91 69 39 339 110 156 227 139 248 157 132 123 24 340 55 84 201 222 307 75 334 79 102 95 90 84 78 44 26 17 27 36 355 38 339 86 132 118 102 98 121 113 82 73 64 63 62 66 61 51 43 43 43 56 52 45 38
302 244 231 208 246 251 242 215 163 96 2 221 142 165 206 236 158 309 322 233 270 197 175 147 65 80 13 33 37 67 27 35 37 348 333 329 341 186 189 154 179 156 177 118 223 114 148 140 96 164 78 164 181 115 113 101 66 33 10 337 349 39 120 71 49 37 26 94 107 135 128 90 98 93 85 66 66 62 56 46 54 53 51 48 48 50 47 41